This demonstration page uses our WeatherBlox Daily Observations layout. Learn more.

Left ArrowRight Arrow

38.20091, -84.87328

Hourly Observations for August 29, 2022

Temp ( °F °C ) Dew Point ( °F °C ) Humidity (%) Winds ( mph kmh ) Pressure ( in mb ) Visibility ( mi km ) Precip ( " mm )
12:53 am 00:53 Clear 79 26.1 69 20.6 72 72 SSE 8 13 29.96 1014 10 16 0.00 0.00
1:53 am 01:53 Clear 78 25.6 69 20.6 74 74 S 8 13 29.95 1014 10 16 0.00 0.00
2:53 am 02:53 Clear 78 25.6 69 20.6 74 74 S 6 9 29.96 1015 10 16 0.00 0.00
3:53 am 03:53 Mostly Clear 78 25.6 70 21.1 76 76 SSW 6 9 29.97 1015 10 16 0.00 0.00
4:53 am 04:53 Mostly Clear 76 24.4 70 21.1 82 82 S 5 7 29.97 1015 10 16 0.00 0.00
5:53 am 05:53 Clear 75 23.9 70 21.1 84 84 S 3 6 29.98 1015 10 16 0.00 0.00
6:53 am 06:53 Clear 74 23.3 70 21.1 87 87 S 6 9 30.00 1016 10 16 0.00 0.00
7:53 am 07:53 Mostly Sunny 75 23.9 70 21.1 84 84 S 6 9 30.01 1016 10 16 0.00 0.00
8:53 am 08:53 Sunny 80 26.7 71 21.7 74 74 SSW 6 9 30.03 1017 10 16 0.00 0.00
9:53 am 09:53 Partly Cloudy 82 27.8 72 22.2 72 72 SSW 7 11 30.02 1017 10 16 0.00 0.00
10:53 am 10:53 Mostly Sunny 85 29.4 73 22.8 68 68 SW 14 22 30.03 1017 10 16 0.00 0.00
11:47 am 11:47 Mostly Cloudy with Thunderstorms 84 29 73 23 70 70 SSW 16 26 30.03 1017 2 3 0.00 0.00
11:53 am 11:53 Mostly Cloudy with Thunderstorms 83 28.3 72 22.2 70 70 SSW 18 30 30.04 1017 2 3 0.00 0.00
11:59 am 11:59 Mostly Cloudy with Nearby Thunderstorms 81 27.2 72 22.2 74 74 SSW 12 19 30.03 1017 10 16 0.00 0.00
12:13 pm 12:13 Partly Cloudy with Thunderstorms 80 26.7 71 21.7 74 74 SSW 10 17 30.03 1017 10 16 0.00 0.00
12:28 pm 12:28 Partly Cloudy with Nearby Thunderstorms 79 26.1 71 21.7 77 77 SSW 8 13 30.04 1017 10 16 0.00 0.00
12:37 pm 12:37 Sunny 79 26.1 71 21.7 77 77 SW 7 11 30.02 1017 10 16 0.00 0.00
12:53 pm 12:53 Sunny 81 27.2 72 22.2 74 74 SSW 5 7 30.02 1017 10 16 0.00 0.00
1:53 pm 13:53 Mostly Sunny 83 28.3 74 23.3 74 74 S 10 17 30.01 1016 10 16 0.00 0.00
2:18 pm 14:18 Mostly Cloudy with Nearby Thunderstorms 82 27.8 75 23.9 79 79 SSW 8 13 29.98 1015 9 14 0.01 0.13
2:32 pm 14:32 Partly Cloudy 84 28.9 75 23.9 74 74 SSW 12 19 29.98 1015 10 16 0.01 0.13
2:45 pm 14:45 Partly Cloudy with Nearby Thunderstorms 86 30 75 23.9 70 70 SSW 10 17 29.97 1015 10 16 0.01 0.13
2:53 pm 14:53 Sunny with Nearby Thunderstorms 86 30 74 23.3 67 67 S 12 19 29.98 1015 10 16 0.01 0.13
3:00 pm 15:00 Sunny 87 30.6 75 23.9 68 68 S 13 20 29.96 1015 10 16 0.00 0.00
3:34 pm 15:34 Partly Cloudy with Thunderstorms 84 28.9 73 22.8 70 70 S 12 19 29.96 1014 10 16 0.00 0.00
3:53 pm 15:53 Sunny 83 28.3 72 22.2 70 70 SSW 12 19 29.96 1015 10 16 0.00 0.00
4:53 pm 16:53 Partly Cloudy with Light Rain 80 26.7 73 22.8 79 79 WSW 7 11 29.99 1016 10 16 0.01 0.13
5:53 pm 17:53 Partly Cloudy with Light Rain 77 25 75 23.9 94 94 NW 5 7 30.00 1016 10 16 0.07 1.78
6:53 pm 18:53 Cloudy with Light Rain 76 24.4 73 22.8 91 91 E 5 7 30.00 1016 10 16 0.04 1.02
7:53 pm 19:53 Partly Cloudy 76 24.4 74 23.3 94 94 Calm 29.96 1014 10 16 0.01 0.13
8:53 pm 20:53 Cloudy 76 24.4 74 23.3 94 94 Calm 29.98 1015 10 16 0.00 0.00
9:04 pm 21:04 Cloudy 76 24.4 74 23.3 94 94 Calm 29.98 1015 9 14 0.00 0.00
9:20 pm 21:20 Mostly Cloudy with Mist and Fog 75 23.9 74 23.3 96 96 E 5 7 29.99 1016 6 10 0.00 0.00
9:38 pm 21:38 Partly Cloudy 75 23.9 74 23.3 96 96 SSE 5 7 29.98 1015 9 14 0.00 0.00
9:53 pm 21:53 Clear 75 23.9 74 23.3 96 96 Calm 29.98 1015 9 14 0.00 0.00
10:53 pm 22:53 Clear 75 23.9 74 23.3 96 96 S 3 6 29.98 1015 9 14 0.00 0.00
11:53 pm 23:53 Cloudy 76 24.4 74 23.3 94 94 Calm 29.96 1015 10 16 0.00 0.00

Powered by AerisWeather